NUA0559 DNAA-DNMM

Flight info

Callsign NUA0559
Flight time 0h 52m
Altitude 32000
Route IKSEM1Q IKSEM DCT VONUK UH340 ERSED ERSED1N
Aircraft A321/M-SDE3FGHIRWY/LB1

Departure

Time 2026-05-09 12:46
Airport Nnamdi Azikiwe International Airport (DNAA)

Arrival

Time 2026-05-09 13:39
Airport Murtala Muhammed International Airport (DNMM)
Time Latitude Longitude Altitude Speed Heading
2026-05-09 12:20 9.00425 7.26909 1113 ft 0 kts 59°
2026-05-09 12:30 9.00423 7.26906 1123 ft 2 kts 59°
2026-05-09 12:31 9.00413 7.26890 1115 ft 3 kts 59°
2026-05-09 12:31 9.00393 7.26862 1117 ft 3 kts 21°
2026-05-09 12:31 9.00376 7.26859 1112 ft 3 kts 343°
2026-05-09 12:32 9.00360 7.26866 1116 ft 1 kts 330°
2026-05-09 12:32 9.00358 7.26867 1116 ft 1 kts 329°
2026-05-09 12:39 9.00363 7.26861 1123 ft 8 kts 308°
2026-05-09 12:39 9.00367 7.26853 1114 ft 7 kts 300°
2026-05-09 12:39 9.00343 7.26775 1117 ft 5 kts 238°
2026-05-09 12:40 9.00329 7.26730 1111 ft 12 kts 282°
2026-05-09 12:40 9.00404 7.26669 1108 ft 17 kts 330°
2026-05-09 12:40 9.00502 7.26612 1103 ft 6 kts 330°
2026-05-09 12:40 9.00503 7.26612 1103 ft 0 kts 330°
2026-05-09 12:41 9.00506 7.26610 1103 ft 4 kts 329°
2026-05-09 12:41 9.00593 7.26529 1110 ft 25 kts 311°
2026-05-09 12:41 9.00722 7.26546 1108 ft 19 kts 42°
2026-05-09 12:41 9.00818 7.26621 1110 ft 16 kts 36°
2026-05-09 12:42 9.00900 7.26680 1111 ft 14 kts 35°
2026-05-09 12:42 9.00986 7.26736 1112 ft 15 kts 34°
2026-05-09 12:42 9.01096 7.26816 1115 ft 27 kts 35°
2026-05-09 12:42 9.01213 7.26897 1116 ft 19 kts 34°
2026-05-09 12:43 9.01315 7.26968 1119 ft 17 kts 34°
2026-05-09 12:43 9.01405 7.27032 1120 ft 14 kts 36°
2026-05-09 12:43 9.01480 7.27087 1120 ft 12 kts 36°
2026-05-09 12:43 9.01542 7.27132 1118 ft 10 kts 32°
2026-05-09 12:44 9.01618 7.27182 1116 ft 14 kts 33°
2026-05-09 12:44 9.01689 7.27233 1121 ft 11 kts 35°
2026-05-09 12:44 9.01760 7.27284 1129 ft 13 kts 35°
2026-05-09 12:44 9.01828 7.27333 1133 ft 11 kts 35°
2026-05-09 12:45 9.01903 7.27362 1128 ft 17 kts 356°
2026-05-09 12:45 9.01988 7.27272 1130 ft 11 kts 302°
2026-05-09 12:45 9.01963 7.27224 1132 ft 10 kts 214°
2026-05-09 12:45 9.01790 7.27102 1119 ft 63 kts 215°
2026-05-09 12:46 9.01263 7.26729 1119 ft 120 kts 214°
2026-05-09 12:46 9.00445 7.26152 1104 ft 164 kts 215°
2026-05-09 12:46 8.99515 7.25480 1680 ft 157 kts 217°
2026-05-09 12:46 8.98637 7.24830 2288 ft 157 kts 217°
2026-05-09 12:47 8.97788 7.24123 2783 ft 162 kts 230°
2026-05-09 12:47 8.97090 7.23172 3009 ft 181 kts 237°
2026-05-09 12:47 8.96363 7.22046 3145 ft 201 kts 238°
2026-05-09 12:47 8.95569 7.20798 3279 ft 219 kts 237°
2026-05-09 12:48 8.94701 7.19451 3384 ft 239 kts 237°
2026-05-09 12:48 8.93742 7.17978 3618 ft 261 kts 237°
2026-05-09 12:48 8.92717 7.16418 4148 ft 269 kts 236°
2026-05-09 12:48 8.91666 7.14828 4747 ft 275 kts 236°
2026-05-09 12:49 8.90581 7.13197 5311 ft 282 kts 236°
2026-05-09 12:49 8.89474 7.11537 5893 ft 287 kts 235°
2026-05-09 12:49 8.88343 7.09849 6494 ft 292 kts 235°
2026-05-09 12:49 8.87192 7.08133 7049 ft 297 kts 235°
2026-05-09 12:50 8.86019 7.06382 7572 ft 303 kts 235°
2026-05-09 12:50 8.84839 7.04624 8101 ft 309 kts 235°
2026-05-09 12:50 8.83620 7.02805 8646 ft 314 kts 234°
2026-05-09 12:50 8.82384 7.00962 9171 ft 319 kts 234°
2026-05-09 12:51 8.81129 6.99090 9672 ft 325 kts 234°
2026-05-09 12:51 8.79844 6.97176 10079 ft 334 kts 234°
2026-05-09 12:51 8.78509 6.95191 10183 ft 353 kts 234°
2026-05-09 12:51 8.77094 6.93087 10311 ft 370 kts 234°
2026-05-09 12:52 8.75614 6.90882 10418 ft 386 kts 234°
2026-05-09 12:52 8.74088 6.88605 10669 ft 395 kts 234°
2026-05-09 12:52 8.72535 6.86286 11118 ft 398 kts 234°
2026-05-09 12:52 8.70976 6.83958 11620 ft 400 kts 234°
2026-05-09 12:53 8.69417 6.81630 12120 ft 401 kts 234°
2026-05-09 12:53 8.67842 6.79278 12639 ft 402 kts 234°
2026-05-09 12:53 8.66289 6.76964 13124 ft 403 kts 234°
2026-05-09 12:53 8.64707 6.74606 13619 ft 405 kts 234°
2026-05-09 12:54 8.63123 6.72247 14042 ft 406 kts 234°
2026-05-09 12:54 8.61528 6.69876 14426 ft 409 kts 234°
2026-05-09 12:54 8.59922 6.67489 14789 ft 412 kts 234°
2026-05-09 12:54 8.58319 6.65107 15146 ft 414 kts 234°
2026-05-09 12:55 8.56693 6.62690 15488 ft 417 kts 234°
2026-05-09 12:55 8.54961 6.60317 15836 ft 418 kts 227°
2026-05-09 12:55 8.52890 6.58256 16156 ft 419 kts 219°
2026-05-09 12:55 8.50689 6.56302 16481 ft 421 kts 219°
2026-05-09 12:56 8.48509 6.54367 16794 ft 424 kts 219°
2026-05-09 12:56 8.46288 6.52393 17089 ft 426 kts 219°
2026-05-09 12:56 8.44051 6.50401 17378 ft 429 kts 219°
2026-05-09 12:56 8.41801 6.48398 17672 ft 431 kts 219°
2026-05-09 12:57 8.39660 6.46264 17922 ft 435 kts 228°
2026-05-09 12:57 8.37887 6.43772 18169 ft 438 kts 239°
2026-05-09 12:57 8.36432 6.41051 18398 ft 441 kts 242°
2026-05-09 12:57 8.35004 6.38345 18639 ft 442 kts 241°
2026-05-09 12:58 8.33549 6.35604 18892 ft 443 kts 241°
2026-05-09 12:58 8.32087 6.32861 19139 ft 444 kts 241°
2026-05-09 12:58 8.30617 6.30107 19385 ft 446 kts 241°
2026-05-09 12:58 8.29147 6.27351 19632 ft 447 kts 241°
2026-05-09 12:59 8.27674 6.24585 19867 ft 448 kts 241°
2026-05-09 12:59 8.26193 6.21806 20116 ft 449 kts 241°
2026-05-09 12:59 8.24711 6.19019 20366 ft 451 kts 241°
2026-05-09 12:59 8.23226 6.16226 20619 ft 452 kts 241°
2026-05-09 13:00 8.21751 6.13453 20864 ft 453 kts 241°
2026-05-09 13:00 8.20253 6.10641 21117 ft 455 kts 241°
2026-05-09 13:00 8.18753 6.07825 21376 ft 456 kts 241°
2026-05-09 13:00 8.17249 6.04997 21630 ft 458 kts 241°
2026-05-09 13:01 8.15737 6.02155 21886 ft 460 kts 241°
2026-05-09 13:01 8.14219 5.99307 22140 ft 461 kts 241°
2026-05-09 13:01 8.12695 5.96448 22398 ft 463 kts 241°
2026-05-09 13:01 8.11167 5.93571 22637 ft 465 kts 241°
2026-05-09 13:02 8.09632 5.90687 22881 ft 466 kts 241°
2026-05-09 13:02 8.08110 5.87835 23132 ft 468 kts 241°
2026-05-09 13:02 8.06562 5.84940 23384 ft 469 kts 241°
2026-05-09 13:02 8.05005 5.82032 23595 ft 471 kts 240°
2026-05-09 13:03 8.03450 5.79127 23789 ft 472 kts 241°
2026-05-09 13:03 8.01884 5.76199 23993 ft 473 kts 241°
2026-05-09 13:03 8.00320 5.73269 24189 ft 475 kts 241°
2026-05-09 13:03 7.98755 5.70333 24389 ft 476 kts 241°
2026-05-09 13:04 7.97181 5.67381 24579 ft 478 kts 241°
2026-05-09 13:04 7.95621 5.64458 24771 ft 479 kts 241°
2026-05-09 13:04 7.94036 5.61489 24971 ft 480 kts 241°
2026-05-09 13:04 7.92448 5.58515 25165 ft 482 kts 241°
2026-05-09 13:05 7.90855 5.55536 25368 ft 483 kts 241°
2026-05-09 13:05 7.89258 5.52553 25564 ft 484 kts 241°
2026-05-09 13:05 7.87645 5.49546 25752 ft 486 kts 241°
2026-05-09 13:05 7.86059 5.46584 25947 ft 487 kts 241°
2026-05-09 13:06 7.84444 5.43567 26125 ft 488 kts 241°
2026-05-09 13:06 7.82828 5.40544 26316 ft 489 kts 241°
2026-05-09 13:06 7.81206 5.37512 26508 ft 491 kts 241°
2026-05-09 13:06 7.79597 5.34511 26690 ft 492 kts 241°
2026-05-09 13:07 7.77957 5.31457 26870 ft 493 kts 241°
2026-05-09 13:07 7.76320 5.28408 27046 ft 495 kts 241°
2026-05-09 13:07 7.74678 5.25347 27210 ft 496 kts 241°
2026-05-09 13:07 7.73036 5.22284 27375 ft 497 kts 241°
2026-05-09 13:08 7.71388 5.19205 27527 ft 498 kts 241°
2026-05-09 13:08 7.69735 5.16120 27675 ft 499 kts 241°
2026-05-09 13:08 7.68103 5.13080 27818 ft 500 kts 240°
2026-05-09 13:08 7.66441 5.09988 27948 ft 502 kts 240°
2026-05-09 13:09 7.64775 5.06885 28075 ft 503 kts 240°
2026-05-09 13:09 7.63113 5.03784 28198 ft 504 kts 241°
2026-05-09 13:09 7.61444 5.00672 28341 ft 504 kts 240°
2026-05-09 13:09 7.59778 4.97566 28463 ft 505 kts 241°
2026-05-09 13:10 7.58105 4.94447 28587 ft 505 kts 240°
2026-05-09 13:10 7.56430 4.91326 28719 ft 506 kts 240°
2026-05-09 13:10 7.54769 4.88236 28854 ft 506 kts 240°
2026-05-09 13:10 7.53091 4.85125 28996 ft 505 kts 240°
2026-05-09 13:11 7.51411 4.82012 29134 ft 505 kts 240°
2026-05-09 13:11 7.49736 4.78902 29272 ft 505 kts 240°
2026-05-09 13:11 7.48060 4.75781 29424 ft 505 kts 240°
2026-05-09 13:11 7.46385 4.72665 29554 ft 505 kts 240°
2026-05-09 13:12 7.44710 4.69552 29717 ft 504 kts 240°
2026-05-09 13:12 7.43040 4.66443 29875 ft 504 kts 240°
2026-05-09 13:12 7.41933 4.64383 29962 ft 504 kts 240°
2026-05-09 13:12 7.39713 4.60255 30136 ft 504 kts 240°
2026-05-09 13:13 7.38042 4.57156 30273 ft 503 kts 240°
2026-05-09 13:13 7.35262 4.52005 30513 ft 502 kts 240°
2026-05-09 13:13 7.33048 4.47897 30706 ft 501 kts 240°
2026-05-09 13:14 7.31387 4.44809 30860 ft 501 kts 240°
2026-05-09 13:16 7.21493 4.20290 29854 ft 508 kts 264°
2026-05-09 13:16 7.21103 4.16711 28468 ft 517 kts 264°
2026-05-09 13:16 7.20707 4.13106 27483 ft 517 kts 264°
2026-05-09 13:16 7.20298 4.09513 26645 ft 513 kts 263°
2026-05-09 13:17 7.19704 4.05992 25907 ft 508 kts 253°
2026-05-09 13:17 7.18564 4.03038 25303 ft 501 kts 241°
2026-05-09 13:17 7.16829 4.00027 24622 ft 497 kts 238°
2026-05-09 13:17 7.15081 3.97029 23969 ft 493 kts 238°
2026-05-09 13:18 7.13390 3.94094 23329 ft 488 kts 239°
2026-05-09 13:18 7.11698 3.91147 22606 ft 483 kts 239°
2026-05-09 13:18 7.10022 3.88236 21911 ft 478 kts 238°
2026-05-09 13:18 7.08355 3.85349 21284 ft 473 kts 238°
2026-05-09 13:19 7.06706 3.82504 20662 ft 467 kts 238°
2026-05-09 13:19 7.05074 3.79687 20001 ft 462 kts 238°
2026-05-09 13:19 7.03462 3.76906 19363 ft 458 kts 238°
2026-05-09 13:19 7.01864 3.74151 18736 ft 453 kts 238°
2026-05-09 13:20 7.00301 3.71461 18104 ft 448 kts 238°
2026-05-09 13:20 6.98736 3.68768 17398 ft 442 kts 238°
2026-05-09 13:20 6.97186 3.66103 16702 ft 437 kts 238°
2026-05-09 13:20 6.95657 3.63474 15879 ft 431 kts 238°
2026-05-09 13:21 6.94171 3.60915 14974 ft 414 kts 238°
2026-05-09 13:21 6.92746 3.58459 14124 ft 399 kts 238°
2026-05-09 13:21 6.91384 3.56112 13210 ft 388 kts 238°
2026-05-09 13:21 6.90049 3.53811 12581 ft 370 kts 238°
2026-05-09 13:22 6.88786 3.51633 12025 ft 353 kts 238°
2026-05-09 13:22 6.87574 3.49542 11474 ft 339 kts 238°
2026-05-09 13:22 6.86393 3.47516 10897 ft 331 kts 238°
2026-05-09 13:23 6.81800 3.39633 8401 ft 317 kts 238°
2026-05-09 13:23 6.80704 3.37750 7771 ft 308 kts 238°
2026-05-09 13:24 6.79881 3.35799 7140 ft 300 kts 260°
2026-05-09 13:24 6.79950 3.33742 6695 ft 295 kts 287°
2026-05-09 13:24 6.80904 3.31950 6355 ft 288 kts 314°
2026-05-09 13:24 6.82498 3.30809 5949 ft 281 kts 341°
2026-05-09 13:25 6.84369 3.30527 5550 ft 275 kts
2026-05-09 13:25 6.86157 3.31112 5114 ft 270 kts 33°
2026-05-09 13:25 6.89467 3.32970 4201 ft 272 kts 39°
2026-05-09 13:26 6.90669 3.34344 4053 ft 259 kts 57°
2026-05-09 13:26 6.91633 3.35828 3913 ft 248 kts 59°
2026-05-09 13:26 6.92546 3.37275 3700 ft 242 kts 59°
2026-05-09 13:26 6.93444 3.38708 3371 ft 241 kts 59°
2026-05-09 13:27 6.94339 3.40135 3046 ft 241 kts 59°
2026-05-09 13:27 6.95249 3.41559 2730 ft 241 kts 54°
2026-05-09 13:27 6.96535 3.42600 2505 ft 238 kts 21°
2026-05-09 13:27 6.98167 3.42877 2486 ft 240 kts
2026-05-09 13:28 6.99848 3.42896 2490 ft 242 kts 359°
2026-05-09 13:28 7.01522 3.42793 2487 ft 242 kts 343°
2026-05-09 13:28 7.02961 3.41972 2484 ft 239 kts 310°
2026-05-09 13:28 7.03734 3.40554 2500 ft 225 kts 278°
2026-05-09 13:29 7.03618 3.39068 2488 ft 215 kts 245°
2026-05-09 13:29 7.02848 3.37855 2477 ft 197 kts 230°
2026-05-09 13:29 7.01966 3.36839 2490 ft 190 kts 222°
2026-05-09 13:29 7.00990 3.35965 2478 ft 187 kts 219°
2026-05-09 13:30 7.00007 3.35112 2487 ft 186 kts 219°
2026-05-09 13:30 6.99023 3.34266 2476 ft 185 kts 219°
2026-05-09 13:30 6.98039 3.33422 2484 ft 185 kts 219°
2026-05-09 13:30 6.96985 3.32692 2484 ft 186 kts 202°
2026-05-09 13:31 6.95735 3.32428 2483 ft 184 kts 179°
2026-05-09 13:31 6.94483 3.32445 2490 ft 184 kts 179°
2026-05-09 13:31 6.93212 3.32462 2489 ft 184 kts 179°
2026-05-09 13:31 6.91925 3.32479 2485 ft 183 kts 179°
2026-05-09 13:32 6.90646 3.32495 2489 ft 185 kts 179°
2026-05-09 13:32 6.88134 3.32526 2483 ft 185 kts 179°
2026-05-09 13:32 6.86856 3.32542 2488 ft 185 kts 179°
2026-05-09 13:33 6.85560 3.32559 2499 ft 186 kts 179°
2026-05-09 13:33 6.84272 3.32575 2496 ft 185 kts 179°
2026-05-09 13:33 6.82996 3.32591 2488 ft 183 kts 179°
2026-05-09 13:33 6.81712 3.32607 2496 ft 185 kts 180°
2026-05-09 13:34 6.80429 3.32623 2494 ft 184 kts 180°
2026-05-09 13:34 6.79144 3.32639 2492 ft 184 kts 179°
2026-05-09 13:34 6.77873 3.32655 2499 ft 185 kts 179°
2026-05-09 13:34 6.76580 3.32671 2497 ft 185 kts 179°
2026-05-09 13:35 6.75291 3.32687 2495 ft 185 kts 179°
2026-05-09 13:35 6.73999 3.32704 2499 ft 186 kts 179°
2026-05-09 13:35 6.72700 3.32720 2494 ft 185 kts 180°
2026-05-09 13:35 6.71430 3.32736 2366 ft 180 kts 180°
2026-05-09 13:36 6.70189 3.32752 2181 ft 177 kts 179°
2026-05-09 13:36 6.68956 3.32767 1966 ft 178 kts 180°
2026-05-09 13:36 6.67731 3.32783 1747 ft 172 kts 180°
2026-05-09 13:36 6.66571 3.32797 1530 ft 160 kts 179°
2026-05-09 13:37 6.65490 3.32811 1305 ft 152 kts 180°
2026-05-09 13:37 6.64454 3.32824 1118 ft 149 kts 179°
2026-05-09 13:37 6.63426 3.32836 925 ft 145 kts 180°
2026-05-09 13:37 6.62418 3.32849 735 ft 144 kts 179°
2026-05-09 13:38 6.61427 3.32862 526 ft 147 kts 179°
2026-05-09 13:38 6.60410 3.32884 327 ft 144 kts 180°
2026-05-09 13:38 6.59416 3.32893 147 ft 140 kts 179°
2026-05-09 13:38 6.58581 3.32905 124 ft 91 kts 179°
2026-05-09 13:39 6.58144 3.32910 116 ft 34 kts 179°
2026-05-09 13:39 6.58052 3.32959 112 ft 12 kts 95°
2026-05-09 13:39 6.58060 3.33036 113 ft 10 kts 54°
2026-05-09 13:39 6.58119 3.33052 115 ft 8 kts
2026-05-09 13:40 6.58177 3.33052 116 ft 12 kts 359°
2026-05-09 13:40 6.58273 3.33050 118 ft 13 kts 359°
2026-05-09 13:40 6.58351 3.33059 117 ft 11 kts 32°
2026-05-09 13:40 6.58371 3.33128 118 ft 10 kts 74°
2026-05-09 13:41 6.58418 3.33156 119 ft 7 kts 19°
2026-05-09 13:41 6.58444 3.33185 119 ft 5 kts 64°
2026-05-09 13:41 6.58451 3.33206 117 ft 1 kts 72°
2026-05-09 13:41 6.58451 3.33208 118 ft 0 kts 72°